DLH29W EDDF-EDDM

Flight info

Callsign DLH29W
Flight time 0h 35m
Altitude 23000
Route CINDY8S/18 CINDY Z74 HAREM T104 ROKIL ROKIL1B
Aircraft A320/M-SDE3FGHIRWY/LB1

Departure

Time 2026-05-05 10:59
Airport Frankfurt Main Airport (EDDF)

Arrival

Time 2026-05-05 11:34
Airport Munich Airport (EDDM)
Time Latitude Longitude Altitude Speed Heading
2026-05-05 10:38 50.04577 8.56632 356 ft 0 kts 114°
2026-05-05 10:44 50.04580 8.56622 363 ft 2 kts 114°
2026-05-05 10:44 50.04587 8.56598 363 ft 2 kts 114°
2026-05-05 10:45 50.04594 8.56575 363 ft 2 kts 114°
2026-05-05 10:45 50.04601 8.56550 361 ft 2 kts 114°
2026-05-05 10:45 50.04608 8.56526 362 ft 2 kts 116°
2026-05-05 10:45 50.04619 8.56508 361 ft 2 kts 186°
2026-05-05 10:46 50.04625 8.56509 360 ft 0 kts 206°
2026-05-05 10:46 50.04601 8.56480 359 ft 6 kts 215°
2026-05-05 10:46 50.04577 8.56460 358 ft 0 kts 207°
2026-05-05 10:47 50.04526 8.56405 362 ft 14 kts 234°
2026-05-05 10:48 50.04491 8.56278 356 ft 12 kts 250°
2026-05-05 10:48 50.04462 8.56156 359 ft 13 kts 249°
2026-05-05 10:48 50.04425 8.56046 362 ft 11 kts 216°
2026-05-05 10:48 50.04417 8.56039 356 ft 0 kts 210°
2026-05-05 10:49 50.04382 8.55988 356 ft 13 kts 233°
2026-05-05 10:49 50.04291 8.55956 358 ft 0 kts 168°
2026-05-05 10:50 50.04242 8.55930 355 ft 16 kts 226°
2026-05-05 10:50 50.04220 8.55858 358 ft 0 kts 248°
2026-05-05 10:50 50.04202 8.55781 354 ft 18 kts 250°
2026-05-05 10:50 50.04157 8.55585 351 ft 21 kts 250°
2026-05-05 10:51 50.04104 8.55370 357 ft 18 kts 249°
2026-05-05 10:51 50.04061 8.55194 357 ft 15 kts 250°
2026-05-05 10:51 50.04026 8.55046 355 ft 14 kts 249°
2026-05-05 10:51 50.03991 8.54901 355 ft 15 kts 249°
2026-05-05 10:52 50.03956 8.54756 352 ft 14 kts 249°
2026-05-05 10:52 50.03923 8.54615 356 ft 14 kts 250°
2026-05-05 10:52 50.03876 8.54423 354 ft 25 kts 249°
2026-05-05 10:52 50.03793 8.54198 350 ft 23 kts 249°
2026-05-05 10:53 50.03736 8.53956 350 ft 25 kts 250°
2026-05-05 10:53 50.03681 8.53725 344 ft 22 kts 250°
2026-05-05 10:53 50.03638 8.53554 340 ft 17 kts 249°
2026-05-05 10:53 50.03595 8.53377 337 ft 19 kts 250°
2026-05-05 10:54 50.03555 8.53213 338 ft 12 kts 250°
2026-05-05 10:54 50.03527 8.53094 334 ft 11 kts 250°
2026-05-05 10:54 50.03500 8.52983 335 ft 11 kts 250°
2026-05-05 10:54 50.03473 8.52879 335 ft 10 kts 246°
2026-05-05 10:55 50.03447 8.52782 333 ft 9 kts 248°
2026-05-05 10:55 50.03435 8.52735 333 ft 0 kts 249°
2026-05-05 10:55 50.03435 8.52734 333 ft 0 kts 249°
2026-05-05 10:56 50.03408 8.52634 335 ft 21 kts 237°
2026-05-05 10:56 50.03350 8.52595 336 ft 0 kts 180°
2026-05-05 10:58 50.03321 8.52594 334 ft 25 kts 180°
2026-05-05 10:59 50.02867 8.52598 333 ft 100 kts 180°
2026-05-05 10:59 50.01963 8.52608 333 ft 157 kts 179°
2026-05-05 10:59 50.00847 8.52618 933 ft 157 kts 180°
2026-05-05 10:59 49.99769 8.52618 1704 ft 153 kts 180°
2026-05-05 11:00 49.98648 8.52618 2202 ft 171 kts 180°
2026-05-05 11:00 49.97392 8.52806 2531 ft 194 kts 163°
2026-05-05 11:00 49.96182 8.53931 2882 ft 218 kts 132°
2026-05-05 11:00 49.95353 8.55993 3394 ft 234 kts 119°
2026-05-05 11:01 49.94594 8.58268 4341 ft 235 kts 118°
2026-05-05 11:01 49.94008 8.60615 5202 ft 243 kts 102°
2026-05-05 11:01 49.93865 8.63365 5657 ft 267 kts 94°
2026-05-05 11:01 49.93737 8.66295 6460 ft 275 kts 101°
2026-05-05 11:02 49.93138 8.69113 7342 ft 277 kts 120°
2026-05-05 11:02 49.91963 8.71470 8243 ft 278 kts 140°
2026-05-05 11:02 49.90411 8.73260 9175 ft 280 kts 146°
2026-05-05 11:02 49.88878 8.75148 10067 ft 284 kts 136°
2026-05-05 11:03 49.87634 8.77608 10596 ft 302 kts 122°
2026-05-05 11:03 49.86567 8.80556 10893 ft 326 kts 120°
2026-05-05 11:03 49.85434 8.83719 11284 ft 343 kts 120°
2026-05-05 11:03 49.84284 8.86935 11987 ft 349 kts 120°
2026-05-05 11:04 49.83096 8.90240 12751 ft 354 kts 121°
2026-05-05 11:04 49.81887 8.93585 13499 ft 358 kts 121°
2026-05-05 11:04 49.80658 8.96969 14174 ft 362 kts 121°
2026-05-05 11:04 49.79412 9.00385 14853 ft 366 kts 121°
2026-05-05 11:05 49.78156 9.03824 15544 ft 369 kts 122°
2026-05-05 11:05 49.76895 9.07303 16208 ft 373 kts 120°
2026-05-05 11:05 49.75911 9.11055 16866 ft 381 kts 109°
2026-05-05 11:05 49.75224 9.15035 17530 ft 384 kts 111°
2026-05-05 11:06 49.74201 9.18776 18186 ft 383 kts 121°
2026-05-05 11:06 49.72733 9.22202 18771 ft 383 kts 132°
2026-05-05 11:06 49.70983 9.25317 19355 ft 385 kts 134°
2026-05-05 11:06 49.69208 9.28444 19929 ft 389 kts 134°
2026-05-05 11:07 49.67416 9.31602 20494 ft 393 kts 134°
2026-05-05 11:07 49.65610 9.34782 21048 ft 396 kts 134°
2026-05-05 11:07 49.63782 9.37993 21582 ft 400 kts 134°
2026-05-05 11:07 49.61938 9.41233 22102 ft 404 kts 134°
2026-05-05 11:08 49.60101 9.44459 22613 ft 407 kts 134°
2026-05-05 11:08 49.58229 9.47748 22806 ft 409 kts 134°
2026-05-05 11:08 49.56335 9.51079 22854 ft 417 kts 134°
2026-05-05 11:08 49.54418 9.54448 22840 ft 419 kts 134°
2026-05-05 11:09 49.52492 9.57836 22853 ft 420 kts 134°
2026-05-05 11:09 49.50565 9.61218 22858 ft 420 kts 134°
2026-05-05 11:09 49.48638 9.64591 22859 ft 420 kts 134°
2026-05-05 11:09 49.46707 9.67962 22862 ft 420 kts 134°
2026-05-05 11:10 49.44776 9.71324 22858 ft 420 kts 134°
2026-05-05 11:10 49.42841 9.74690 22862 ft 420 kts 134°
2026-05-05 11:10 49.40904 9.78051 22861 ft 420 kts 134°
2026-05-05 11:10 49.38994 9.81360 22868 ft 420 kts 134°
2026-05-05 11:11 49.37058 9.84712 22845 ft 420 kts 134°
2026-05-05 11:11 49.35119 9.88062 22842 ft 420 kts 134°
2026-05-05 11:11 49.33181 9.91406 22854 ft 419 kts 134°
2026-05-05 11:11 49.31241 9.94748 22861 ft 419 kts 134°
2026-05-05 11:12 49.29303 9.98086 22864 ft 419 kts 134°
2026-05-05 11:12 49.27366 10.01423 22865 ft 419 kts 134°
2026-05-05 11:12 49.25429 10.04755 22861 ft 419 kts 134°
2026-05-05 11:12 49.23490 10.08077 22861 ft 418 kts 134°
2026-05-05 11:13 49.21551 10.11395 22850 ft 418 kts 134°
2026-05-05 11:13 49.19641 10.14673 22855 ft 418 kts 133°
2026-05-05 11:13 49.17956 10.18309 22854 ft 421 kts 125°
2026-05-05 11:13 49.16369 10.22071 22825 ft 421 kts 125°
2026-05-05 11:14 49.14790 10.25824 22833 ft 421 kts 125°
2026-05-05 11:14 49.13206 10.29594 22832 ft 421 kts 125°
2026-05-05 11:14 49.11624 10.33358 22841 ft 422 kts 125°
2026-05-05 11:14 49.10036 10.37123 22847 ft 422 kts 125°
2026-05-05 11:15 49.08449 10.40880 22842 ft 422 kts 125°
2026-05-05 11:15 49.06854 10.44647 22844 ft 422 kts 125°
2026-05-05 11:15 49.05283 10.48348 22848 ft 422 kts 126°
2026-05-05 11:15 49.03688 10.52103 22851 ft 422 kts 125°
2026-05-05 11:16 49.02094 10.55854 22861 ft 421 kts 125°
2026-05-05 11:16 49.00501 10.59597 22865 ft 421 kts 126°
2026-05-05 11:16 48.98907 10.63335 22847 ft 421 kts 126°
2026-05-05 11:16 48.97311 10.67071 22851 ft 421 kts 126°
2026-05-05 11:17 48.95708 10.70812 22846 ft 422 kts 126°
2026-05-05 11:17 48.94108 10.74544 22840 ft 419 kts 126°
2026-05-05 11:17 48.92532 10.78220 22320 ft 412 kts 126°
2026-05-05 11:17 48.90997 10.81804 21717 ft 408 kts 126°
2026-05-05 11:18 48.89460 10.85395 21110 ft 404 kts 126°
2026-05-05 11:18 48.87930 10.88958 20546 ft 400 kts 126°
2026-05-05 11:18 48.86413 10.92476 19973 ft 397 kts 126°
2026-05-05 11:18 48.84900 10.95968 19443 ft 394 kts 126°
2026-05-05 11:19 48.83400 10.99426 18902 ft 391 kts 126°
2026-05-05 11:19 48.81914 11.02861 18359 ft 389 kts 126°
2026-05-05 11:19 48.80433 11.06286 17915 ft 388 kts 126°
2026-05-05 11:19 48.78956 11.09699 17463 ft 386 kts 126°
2026-05-05 11:20 48.77486 11.13092 17017 ft 384 kts 126°
2026-05-05 11:20 48.76040 11.16422 16583 ft 382 kts 126°
2026-05-05 11:20 48.74588 11.19764 16112 ft 378 kts 126°
2026-05-05 11:20 48.73146 11.23072 15589 ft 375 kts 126°
2026-05-05 11:21 48.71715 11.26349 15051 ft 372 kts 126°
2026-05-05 11:21 48.70289 11.29604 14525 ft 370 kts 126°
2026-05-05 11:21 48.68870 11.32837 14003 ft 368 kts 126°
2026-05-05 11:21 48.67459 11.36050 13454 ft 366 kts 126°
2026-05-05 11:22 48.66058 11.39246 12864 ft 364 kts 125°
2026-05-05 11:22 48.64681 11.42385 12309 ft 361 kts 125°
2026-05-05 11:22 48.63298 11.45531 11763 ft 358 kts 125°
2026-05-05 11:22 48.61923 11.48651 11222 ft 355 kts 125°
2026-05-05 11:23 48.60559 11.51739 10685 ft 352 kts 125°
2026-05-05 11:23 48.59205 11.54797 10149 ft 349 kts 125°
2026-05-05 11:23 48.57866 11.57820 9716 ft 343 kts 125°
2026-05-05 11:23 48.56591 11.60763 9584 ft 327 kts 123°
2026-05-05 11:24 48.55551 11.63658 9439 ft 301 kts 111°
2026-05-05 11:24 48.54985 11.66621 9003 ft 289 kts 105°
2026-05-05 11:24 48.54514 11.69531 8376 ft 284 kts 104°
2026-05-05 11:24 48.54051 11.72405 7728 ft 280 kts 104°
2026-05-05 11:25 48.53587 11.75236 7085 ft 276 kts 104°
2026-05-05 11:25 48.53133 11.78034 6426 ft 274 kts 104°
2026-05-05 11:25 48.52691 11.80781 5758 ft 272 kts 104°
2026-05-05 11:25 48.52243 11.83535 5114 ft 270 kts 104°
2026-05-05 11:26 48.51799 11.86261 4930 ft 268 kts 104°
2026-05-05 11:26 48.51348 11.89014 4947 ft 271 kts 103°
2026-05-05 11:26 48.51213 11.91839 4956 ft 272 kts 87°
2026-05-05 11:26 48.51371 11.94569 4950 ft 251 kts 85°
2026-05-05 11:27 48.51552 11.97102 4955 ft 236 kts 85°
2026-05-05 11:27 48.51725 11.99491 4955 ft 225 kts 84°
2026-05-05 11:27 48.51889 12.01781 4955 ft 219 kts 84°
2026-05-05 11:27 48.52053 12.04065 4965 ft 219 kts 85°
2026-05-05 11:28 48.52131 12.06349 4954 ft 217 kts 98°
2026-05-05 11:28 48.51615 12.08445 4809 ft 213 kts 127°
2026-05-05 11:28 48.50503 12.09880 4538 ft 211 kts 156°
2026-05-05 11:28 48.49073 12.10333 4512 ft 214 kts 182°
2026-05-05 11:29 48.47582 12.10195 4509 ft 215 kts 184°
2026-05-05 11:29 48.46084 12.10055 4507 ft 215 kts 184°
2026-05-05 11:29 48.44603 12.09920 4511 ft 222 kts 183°
2026-05-05 11:29 48.42973 12.09772 4510 ft 241 kts 184°
2026-05-05 11:30 48.41296 12.09550 4503 ft 244 kts 193°
2026-05-05 11:30 48.39769 12.08485 4508 ft 244 kts 219°
2026-05-05 11:30 48.38711 12.06517 4494 ft 245 kts 245°
2026-05-05 11:30 48.38306 12.04043 4277 ft 244 kts 263°
2026-05-05 11:31 48.38133 12.01525 3955 ft 238 kts 264°
2026-05-05 11:31 48.37968 11.99147 3659 ft 217 kts 264°
2026-05-05 11:31 48.37810 11.96994 3390 ft 198 kts 263°
2026-05-05 11:31 48.37660 11.94994 3179 ft 186 kts 263°
2026-05-05 11:32 48.37520 11.93143 2920 ft 175 kts 263°
2026-05-05 11:32 48.37391 11.91417 2696 ft 158 kts 263°
2026-05-05 11:32 48.37270 11.89819 2491 ft 151 kts 263°
2026-05-05 11:32 48.37148 11.88261 2298 ft 149 kts 263°
2026-05-05 11:33 48.37020 11.86710 2084 ft 150 kts 264°
2026-05-05 11:33 48.36901 11.85144 1896 ft 151 kts 265°
2026-05-05 11:33 48.36794 11.83579 1706 ft 151 kts 265°
2026-05-05 11:33 48.36680 11.82010 1521 ft 151 kts 265°
2026-05-05 11:34 48.36577 11.80575 1480 ft 115 kts 264°
2026-05-05 11:34 48.36509 11.79701 1474 ft 55 kts 264°
2026-05-05 11:34 48.36460 11.79152 1485 ft 51 kts 261°
2026-05-05 11:34 48.36359 11.78844 1473 ft 7 kts 218°
2026-05-05 11:35 48.36319 11.78761 1482 ft 16 kts 233°
2026-05-05 11:35 48.36247 11.78595 1476 ft 0 kts 234°
2026-05-05 11:35 48.36246 11.78593 1476 ft 2 kts 233°
2026-05-05 11:35 48.36184 11.78528 1482 ft 16 kts 165°
2026-05-05 11:36 48.36151 11.78663 1474 ft 16 kts 83°
2026-05-05 11:36 48.36167 11.78877 1476 ft 23 kts 83°
2026-05-05 11:36 48.36186 11.79123 1485 ft 25 kts 83°
2026-05-05 11:36 48.36150 11.79298 1479 ft 15 kts 153°